Location: Bittelbronn
(48.4454°N, 8.5870°E)
Time: 23:08:27
(UTC+00:00)

Meteor 2-5 Rocket - Pass Details

Date: 12 August 2024
Orbit: 833 x 910 km, 81.2° (Epoch: 07 September)

Event Time Altitude Azimuth Distance (km) Brightness Sun altitude
Rises 02:10:03 0° 348° (NNW) 3,460 7.4 -17.5°
Reaches altitude 10° 02:12:28 10° 349° (N) 2,530 6.7 -17.2°
Maximum altitude 02:18:15 85° 78° (ENE) 894 3.8 -16.6°
Drops below altitude 10° 02:24:06 10° 168° (SSE) 2,563 5.9 -15.9°
Enters shadow 02:25:31 - 169° (S) 3,102 6.3 -15.8°
